Regional Weather Roundup
Issued by NWS Jackson, KY

Home | Current Version | Previous Version | Graphics & Text | Print | Product List | Glossary On
Versions: 1 2 3 4 5 6 7 8 9 10 11 12 13 14 15 16 17 18 19 20 21 22 23 24 25 26 27 28 29 30 31 32 33 34 35 36 37 38 39 40 41 42 43 44 45 46 47 48 49 50
000
ASUS43 KJKL 050110
RWRJKL

EAST KENTUCKY HOURLY WEATHER ROUNDUP
NATIONAL WEATHER SERVICE JACKSON KY
900 PM EDT TUE AUG 04 2015

NOTE: "FAIR" INDICATES FEW OR NO CLOUDS BELOW 12,000 FEET WITH
NO SIGNIFICANT WEATHER AND/OR OBSTRUCTIONS TO VISIBILITY.

* THESE REPORTS ARE NOT UNDER NWS QUALITY CONTROL AND MAY NOT
  REPORT WEATHER SUCH AS PRECIPITATION AND FOG.

KYZ079-080-083-085-087-088-110-112-115-119-120-050200
...EASTERN KENTUCKY...

CITY           SKY/WX    TMP DP  RH WIND       PRES   REMARKS
JACKSON        LGT RAIN  69  67  93 CALM      30.08R FOG
LONDON         CLOUDY    73  65  75 CALM      30.05S
SOMERSET*      CLOUDY    70  68  94 NE7       30.08R
MONTICELLO*    CLOUDY    73  71  93 CALM      30.08R
MIDDLESBORO*   CLOUDY    75  68  78 CALM      30.07R
HAZARD APT*    LGT RAIN  70  70 100 CALM      30.08R
PIKEVILLE APT* RAIN      68  66  94 SW3       30.08R
BIG SANDY*     LGT RAIN  71  70  95 SW3       30.05S
MOREHEAD APT*  MOCLDY    73  64  73 S15       30.06R
$$

KYZ035-036-041-042-044-050-067-078-099-050200
...CENTRAL KENTUCKY...

CITY           SKY/WX    TMP DP  RH WIND       PRES   REMARKS
MT STERLING*   MOCLDY    70  70 100 SW6       30.05R
DANVILLE*      LGT RAIN  68  68 100 CALM      30.05R
RICHMOND*      CLOUDY    70  66  88 CALM      30.05R
LEXINGTON      TSTM      72  68  87 W13       30.06R
FRANKFORT      CLOUDY    72  67  84 S12       30.04R THUNDER
$$

KYZ091>093-OHZ055-061-077-WVZ005-015-034-035-042-050200
...SOUTHERN OHIO/WEST VIRGINIA...

CITY           SKY/WX    TMP DP  RH WIND       PRES   REMARKS
COVINGTON      CLOUDY    72  62  71 W5        30.00R
COLUMBUS       CLOUDY    75  55  49 NW6       29.98R
DAYTON         MOCLDY    72  59  63 NW6       30.01R
WILMINGTON     PTCLDY    72  60  66 SW5       30.01R
HUNTINGTON     PTCLDY    76  70  82 W3        30.00R
CHARLESTON     MOCLDY    79  70  74 W7        29.99R
PINEVILLE*     MOCLDY    70  69  99 MISG      30.12R
BECKLEY        PTCLDY    73  64  73 SW7       30.08S
BLUEFIELD      PTCLDY    70  62  76 W7        30.13R
$$

VAZ002-007-008-TNZ017-027-036-066-071-050200
...SOUTHWEST VIRGINIA/EAST TENNESSEE...

CITY           SKY/WX    TMP DP  RH WIND       PRES   REMARKS
WISE*          LGT RAIN  70  61  73 SW9       30.15R
ABINGDON*      CLOUDY    74  65  73 CALM      30.10R
BRISTOL        CLOUDY    69  67  93 CALM      30.08R
KNOXVILLE      MOCLDY    86  67  52 CALM      30.00R
OAK RIDGE      MOCLDY    85  73  67 CALM      30.02R HX  91
CROSSVILLE     MOCLDY    77  70  79 CALM      30.08R
NASHVILLE      MOCLDY    88  65  46 NW5       29.99R HX  90
$$

...KEY TO REMARKS...
VSB - VISIBILITY IN MILES
WCI - WIND CHILL INDEX
HX  - HEAT INDEX

$$


USA.gov is the U.S. government's official web portal to all federal, state and local government web resources and services.